STARLINK-11518, 62462

Orbit data source: Space-Track

STARLINK-11518, 62462 is a payload satellite owned by SpaceX/Seattle (US) in LEO that was launched on Tue, 31 Dec 2024 UTC via an FALCON 9 launch vehicle from the Air Force Eastern Test Range (AFETR). Payload-class satellites include a variety of spacecraft equipped with specific instruments for various scientific and technological missions. These include communications satellites like Starlink; space stations such as the ISS; scientific satellites like the Hubble; Earth observation satellites from companies like Planet Labs, Umbra, and HawkEye 360; GPS; miniature CubeSats for education and research; and military/defense satellites.

Loading next visibility...
Identifier
62462, 2024-254A
Orbit
LEO
Country
Flag of USUS
Related business
Manufacturer
SpaceX/Seattle
Mission
Operational Commercial Communications
Bus & Motor
STARLINK V2MD, Unknown motor
Mass
960 kg wet, ~910 kg dry
Launch date (UTC)
2024-12-31 (10 months ago)
Launch vehicle
FALCON 9
Launch site
Air Force Eastern Test Range (AFETR)
Object type
Payload
Rocket body
Debris
Shape & HBR
Box + 2 Pan, 18.1 m
Radar Cross Section
36.964 m², Large (>1 m²)

Expand to show TLE details & history
Last TLE update: 22 hours ago

TLE from 22 hours ago
0 STARLINK-11518
1 62462U 24254A   25290.54348915  .00310228  00000-0  23296-2 0  9994
2 62462  43.0007   6.2150 0001809 260.1540  99.9123 15.70865450 46897
Epoch: 2025-10-17T13:02Z
TLE epoch observation values (Epoch: 2025-10-17T13:02:37.462Z)
Latitude
-0.00005°
Longitude
144.27151°
Altitude
356.403 km
Speed
7.697 km/s
True Right ascension
00h 24m 51s
True Declination
0° 00' 00"
Sunlit
Object was in full shadow at epoch
Visualization orbit readout
Latitude
Unknown
Longitude
Unknown
Altitude
Unknown
Speed
Unknown
Apparent Right ascension
Unknown
Apparent Declination
Unknown
Sunlit
N/A
Visualization observer readout
Local Sidereal Time
05:53:29
Azimuth
Unknown
Elevation
Unknown
Doppler factor
Unknown
Orbital elements
Apogee altitude
359.622 km
Perigee altitude
357.185 km
Semi-major axis
6,736.541 km
Eccentricity
0.00018
Inclination
43.0007°
RAAN
6.215°
Arg. of periapsis
260.154°
True anomaly
99.93272°
Mean anomaly
99.9123°
Eccentric anomaly
99.92251°
Mean motion
3.92543 °/min
Orbital period
91.71 mins
BSTAR
0.0023296
Loading maneuver chart data...
Computing Atmospheric mass density...
Loading historical data...
Loading historical data...
Loading historical data...
Loading historical data...
Loading historical data...
Loading historical data...
Loading historical data...

Documentation

Showing up to 5 results
|